Date,TemperatureHighF,TemperatureAvgF,TemperatureLowF,DewpointHighF,DewpointAvgF,DewpointLowF,HumidityHigh,HumidityAvg,HumidityLow,PressureMaxIn,PressureMinIn,WindSpeedMaxMPH,WindSpeedAvgMPH,GustSpeedMaxMPH,PrecipitationSumIn
2013-1-1,79.6,72.4,67.4,64.1,61.4,58.6,79,69,57,30.17,30.02,24,2,24,0.00
2013-1-2,84.3,72.5,62.5,69.7,64.1,59.3,94,77,50,30.07,29.96,11,1,11,0.00
2013-1-3,85.2,74.0,66.6,69.8,66.7,64.2,94,79,54,30.10,29.99,12,1,12,0.00
2013-1-4,80.0,71.8,66.2,71.1,67.6,64.4,95,87,68,30.20,30.07,10,2,10,0.00
2013-1-5,74.5,69.1,66.3,69.8,66.5,64.7,95,92,81,30.23,30.13,12,2,12,0.11
2013-1-6,81.0,73.0,65.9,73.9,68.5,64.2,96,86,69,30.16,30.03,17,2,17,0.05
2013-1-7,74.4,70.2,67.2,69.7,67.6,65.7,96,91,82,30.14,30.04,13,2,13,0.05
2013-1-8,81.6,74.7,68.5,74.6,70.3,66.7,96,87,70,30.17,30.04,18,2,18,0.09
2013-1-9,81.3,76.5,73.2,71.8,70.5,69.1,92,82,72,30.25,30.12,20,5,20,0.00
2013-1-10,79.8,75.8,72.5,69.5,66.9,63.8,82,74,62,30.27,30.15,24,4,24,0.00
2013-1-11,80.8,74.9,70.6,70.0,67.7,65.8,87,78,66,30.23,30.12,18,3,18,0.00
2013-1-12,78.7,73.7,68.2,70.6,67.5,64.7,90,81,68,30.15,30.06,17,2,17,0.01
2013-1-13,80.5,73.8,67.9,68.5,65.8,63.5,92,77,60,30.10,30.04,23,3,23,0.02
2013-1-14,79.8,72.6,65.4,66.5,64.3,62.0,90,76,59,30.14,30.08,19,2,19,0.00
2013-1-15,77.5,71.6,67.3,70.9,66.7,63.0,94,85,72,30.11,30.02,15,1,15,0.02
2013-1-16,81.0,72.7,64.5,72.4,67.2,62.4,95,84,66,30.08,29.98,16,2,16,0.05
2013-1-17,81.9,71.2,59.9,73.1,65.8,52.9,95,84,67,30.07,29.94,26,3,26,0.00
2013-1-18,69.8,62.3,52.1,60.1,53.6,46.1,82,73,66,30.21,30.07,17,6,17,0.00
2013-1-19,69.5,67.2,63.7,67.3,63.2,58.3,95,87,68,30.19,30.06,11,1,12,0.09
2013-1-20,79.0,69.7,63.5,69.0,65.5,62.0,97,87,62,30.12,29.98,13,1,13,0.10
2013-1-21,81.4,71.5,65.2,70.8,67.0,63.1,96,86,66,30.04,29.93,14,2,14,0.01
2013-1-22,74.0,66.4,61.3,63.3,59.6,55.7,95,79,61,30.19,29.98,18,5,18,0.00
2013-1-23,73.0,65.2,59.7,59.8,56.3,53.1,89,74,53,30.28,30.17,18,4,18,0.00
2013-1-24,73.0,64.3,57.7,56.5,53.5,43.7,89,70,46,30.27,30.16,13,4,13,0.00
2013-1-25,75.3,65.3,57.8,60.3,56.2,52.8,90,74,52,30.26,30.14,11,2,11,0.00
2013-1-26,77.1,66.4,58.2,61.3,58.5,53.4,94,77,52,30.23,30.13,11,2,11,0.00
2013-1-27,76.6,69.2,61.7,63.8,60.7,58.4,92,75,58,30.26,30.17,15,3,15,0.00
2013-1-28,78.9,73.7,69.5,65.9,63.9,61.7,79,72,58,30.29,30.19,19,4,19,0.00
2013-1-29,78.8,73.3,66.4,69.7,66.6,63.9,94,80,67,30.20,30.08,23,4,23,0.00
2013-1-30,80.2,73.9,69.4,67.8,65.7,63.5,90,76,64,30.09,29.93,25,4,25,0.00
2013-1-31,71.2,65.3,57.2,69.9,59.0,44.3,96,81,58,30.16,29.92,20,4,20,0.01
2013-2-1,70.4,60.5,51.6,56.3,49.5,40.1,80,67,58,30.25,30.14,16,7,18,0.00
2013-2-2,73.0,62.6,53.3,56.7,50.5,41.1,88,66,48,30.24,30.09,14,3,14,0.00
2013-2-3,71.8,62.5,54.6,56.7,49.9,37.1,93,67,30,30.15,30.04,16,3,16,0.00
2013-2-4,75.4,61.9,50.4,56.2,49.6,42.0,88,66,35,30.12,30.00,13,1,13,0.00
2013-2-5,80.2,66.9,55.0,64.0,58.6,53.0,94,77,43,30.05,29.97,13,1,13,0.00
2013-2-6,80.1,69.7,61.1,66.6,63.0,59.7,96,80,62,30.08,29.99,13,1,13,0.00
2013-2-7,81.2,71.7,62.3,67.2,63.9,60.5,94,78,53,30.05,29.91,16,2,16,0.00
2013-2-8,81.5,73.0,65.7,70.1,67.4,59.8,94,83,66,30.00,29.88,16,3,16,0.00
2013-2-9,77.8,69.6,61.8,67.2,63.1,58.4,96,80,65,30.14,29.99,16,4,16,0.00
2013-2-10,73.9,70.3,66.8,64.9,61.9,58.2,89,75,69,30.24,30.12,20,4,20,0.05
2013-2-11,78.0,71.6,65.6,66.4,63.9,60.4,89,77,66,30.19,30.08,20,3,20,0.00
2013-2-12,87.2,73.8,63.4,70.1,65.9,61.6,95,78,44,30.09,29.93,16,2,16,0.00
2013-2-13,87.3,76.6,68.4,72.2,69.3,66.2,95,80,55,29.98,29.86,21,3,21,0.01
2013-2-14,83.0,69.8,61.8,72.3,66.7,60.1,94,90,69,29.99,29.83,25,4,25,1.09
2013-2-15,70.6,65.6,62.6,66.9,63.6,60.8,96,93,83,30.00,29.91,13,2,13,0.24
2013-2-16,72.5,64.2,54.8,62.9,56.9,45.9,96,79,46,30.06,29.85,25,6,25,0.01
2013-2-17,55.9,50.7,44.5,46.0,31.9,21.5,75,51,30,30.28,30.05,25,8,25,0.00
2013-2-18,68.0,58.8,46.3,57.8,46.2,34.2,74,63,48,30.29,30.17,18,4,18,0.00
2013-2-19,77.7,69.9,58.9,66.3,61.4,54.5,94,75,62,30.17,30.05,18,4,18,0.21
2013-2-20,77.3,69.5,63.9,67.0,64.0,59.6,96,84,57,30.09,29.98,13,2,13,0.06
2013-2-21,81.5,72.3,64.4,68.5,65.4,62.9,96,80,61,30.06,29.97,15,2,15,0.00
2013-2-22,81.3,75.0,69.5,71.2,69.2,65.7,91,82,70,30.07,29.99,21,5,21,0.00
2013-2-23,87.3,77.1,71.5,73.1,70.1,68.3,93,80,56,30.02,29.88,17,4,17,0.03
2013-2-24,89.7,77.6,70.7,73.5,69.9,65.2,96,79,46,29.97,29.86,13,2,13,0.00
2013-2-25,85.3,75.6,69.5,73.4,70.1,66.8,93,84,62,29.89,29.77,20,2,20,0.04
2013-2-26,87.0,78.8,73.3,72.6,70.9,68.9,92,78,58,29.87,29.77,22,4,22,0.00
2013-2-27,76.4,69.4,63.9,72.9,65.3,61.7,95,87,68,29.94,29.83,11,2,12,0.33
2013-2-28,68.6,63.5,59.5,62.5,55.5,49.1,95,76,55,29.99,29.88,15,4,15,0.01
2013-3-1,63.5,60.9,57.7,57.3,52.5,48.4,87,74,62,29.97,29.88,14,4,14,0.00
2013-3-2,64.0,57.1,51.9,49.0,43.8,36.8,75,62,45,30.01,29.93,28,6,28,0.00
2013-3-3,60.6,53.6,48.9,47.6,43.3,39.9,89,69,50,30.13,29.93,24,5,24,0.02
2013-3-4,67.7,53.9,43.0,47.5,38.8,33.3,82,59,33,30.19,30.09,19,4,19,0.00
2013-3-5,76.6,63.6,51.0,58.0,53.6,47.3,90,71,47,30.15,30.05,17,2,17,0.00
2013-3-6,77.3,64.5,51.3,64.9,52.4,30.6,93,68,29,30.08,29.92,27,6,27,0.02
2013-3-7,68.8,57.9,47.3,55.8,45.3,37.1,89,64,43,30.16,30.04,12,4,15,0.00
2013-3-8,73.9,62.6,52.6,54.9,51.0,42.6,92,69,34,30.18,30.07,14,3,14,0.01
2013-3-9,74.2,63.8,53.8,58.2,54.4,50.8,91,73,53,30.16,30.08,15,3,15,0.00
2013-3-10,75.2,68.5,62.1,61.3,57.2,54.1,83,68,52,30.13,30.04,17,4,17,0.00
2013-3-11,77.4,71.4,67.1,62.8,60.8,57.0,79,70,51,30.08,29.93,19,4,19,0.00
2013-3-12,83.3,73.6,66.9,68.8,65.4,61.6,87,76,57,29.98,29.88,21,4,21,0.00
2013-3-13,73.7,65.0,56.2,65.2,54.5,45.8,92,71,40,30.10,29.95,18,5,18,0.00
2013-3-14,69.9,60.5,53.3,54.8,47.2,39.3,89,64,35,30.18,30.06,19,6,19,0.00
2013-3-15,71.1,61.4,51.4,54.7,50.3,44.6,83,68,43,30.23,30.12,17,4,17,0.00
2013-3-16,76.2,65.3,54.7,60.5,54.4,52.3,93,70,46,30.17,30.06,16,2,16,0.00
2013-3-17,77.0,67.9,58.8,61.8,58.6,53.6,91,73,54,30.13,30.00,20,3,20,0.00
2013-3-18,81.2,71.3,64.3,69.4,65.0,60.0,94,81,65,30.05,29.93,24,4,24,0.14
2013-3-19,79.5,72.5,67.5,69.3,67.4,65.6,95,85,65,29.99,29.77,23,2,23,0.02
2013-3-20,86.5,73.4,65.0,71.7,64.5,59.2,95,76,47,29.95,29.77,23,2,23,0.01
2013-3-21,73.3,66.3,60.7,61.4,52.8,39.5,92,66,30,29.92,29.80,16,4,16,0.00
2013-3-22,75.9,68.3,57.3,68.8,60.7,54.1,92,78,59,29.98,29.87,19,3,19,0.01
2013-3-23,90.5,79.5,71.8,75.6,70.5,67.1,95,76,50,29.96,29.77,18,3,18,0.07
2013-3-24,91.2,79.8,72.7,74.3,71.7,67.7,95,78,53,29.86,29.66,33,5,33,0.01
2013-3-25,76.5,72.5,62.9,72.4,61.1,45.3,95,70,42,29.98,29.72,20,5,20,0.07
2013-3-26,65.1,59.4,51.2,47.0,41.1,34.5,67,52,34,30.19,29.96,23,9,23,0.00
2013-3-27,67.2,56.1,46.0,49.0,41.7,36.3,78,60,38,30.23,30.14,18,5,18,0.00
2013-3-28,71.5,60.4,49.6,52.0,46.3,39.3,84,62,36,30.25,30.13,15,4,15,0.00
2013-3-29,73.8,64.4,54.8,54.6,50.9,45.8,79,63,47,30.27,30.17,16,4,16,0.00
2013-3-30,74.8,66.6,57.9,57.3,53.8,48.6,89,65,43,30.24,30.13,15,2,16,0.00
2013-3-31,80.9,70.6,59.8,66.6,61.5,54.9,92,74,56,30.16,30.02,21,4,21,0.00
2013-4-1,88.0,74.9,68.2,71.6,66.8,61.5,94,77,43,30.03,29.92,19,2,19,0.22
2013-4-2,84.6,72.7,65.2,68.7,65.2,62.2,96,79,51,30.06,29.96,12,2,12,0.01
2013-4-3,83.6,75.6,68.3,69.8,67.6,65.6,92,77,57,30.04,29.96,22,4,22,0.00
2013-4-4,87.7,75.4,68.1,73.2,69.2,65.1,95,82,58,30.02,29.87,28,4,32,0.36
2013-4-5,71.6,67.6,62.6,69.3,65.4,60.8,96,92,83,29.97,29.79,18,3,18,0.09
2013-4-6,75.9,67.4,58.2,66.1,60.8,55.9,94,80,64,30.06,29.90,19,6,19,0.00
2013-4-7,77.1,72.3,66.2,64.9,63.3,61.6,86,73,63,30.11,30.00,14,3,16,0.02
2013-4-8,81.6,72.6,63.2,66.4,62.0,53.3,92,71,39,30.10,30.01,19,2,19,0.02
2013-4-9,80.2,73.7,67.0,68.7,65.9,63.2,92,77,64,30.12,30.02,17,3,17,0.00
2013-4-10,83.8,76.8,70.6,72.1,69.6,65.9,88,79,66,30.08,29.96,21,4,21,0.01
2013-4-11,84.2,78.3,74.9,73.0,71.4,70.1,87,80,67,29.99,29.87,24,7,24,0.01
2013-4-12,90.0,79.6,76.0,77.3,74.0,71.8,90,83,63,29.93,29.83,21,4,21,0.00
2013-4-13,87.5,76.7,72.0,76.4,72.4,69.0,93,87,66,29.94,29.85,14,1,14,0.00
2013-4-14,87.8,79.1,72.7,75.9,73.0,70.8,96,83,62,29.94,29.86,21,4,21,0.02
2013-4-15,89.7,77.8,70.9,77.2,72.9,68.3,95,86,62,30.03,29.90,20,3,20,0.06
2013-4-16,86.0,77.7,71.6,76.9,72.5,69.9,95,85,68,30.09,29.99,17,4,17,0.04
2013-4-17,82.5,77.1,72.2,71.3,69.3,67.8,91,78,64,30.08,29.99,15,3,15,0.19
2013-4-18,86.3,79.5,73.3,73.5,70.7,68.1,88,75,58,30.03,29.95,18,4,19,0.09
2013-4-19,87.9,81.3,76.7,74.1,72.2,69.1,84,74,57,30.01,29.93,24,6,24,0.00
2013-4-20,91.7,79.0,72.7,76.4,72.5,68.8,93,82,54,30.05,29.90,26,3,26,0.04
2013-4-21,85.8,76.7,71.0,74.3,71.3,69.0,95,84,65,30.06,29.95,18,4,18,0.08
2013-4-22,86.8,73.8,68.1,71.7,69.1,65.9,95,86,60,30.02,29.89,19,2,19,0.06
2013-4-23,81.5,74.0,66.9,70.8,66.4,62.6,96,79,61,30.06,29.92,21,5,21,0.11
2013-4-24,82.7,75.6,68.0,67.7,64.2,61.4,88,69,54,30.10,30.00,17,3,17,0.02
2013-4-25,81.1,75.1,69.0,65.4,63.2,61.1,81,67,54,30.17,30.05,15,2,15,0.01
2013-4-26,80.8,74.2,67.0,67.4,64.9,61.8,89,73,59,30.19,30.09,17,3,17,0.00
2013-4-27,80.8,75.8,69.8,67.9,64.7,60.8,79,69,56,30.18,30.05,18,4,18,0.01
2013-4-28,82.5,76.2,72.0,67.0,64.3,61.6,79,67,55,30.09,29.96,18,4,18,0.00
2013-4-29,83.8,76.9,73.0,71.9,68.4,63.3,85,75,64,30.00,29.90,20,4,20,0.00
2013-4-30,87.3,76.3,71.3,74.4,70.3,67.1,93,82,58,29.96,29.90,21,2,21,0.00
2013-5-1,86.0,75.1,70.1,75.4,70.8,68.2,94,87,64,29.98,29.89,15,2,15,0.00
2013-5-2,79.3,71.6,68.7,73.7,69.2,67.1,95,92,81,29.92,29.75,21,3,21,0.01
2013-5-3,88.5,74.5,67.4,72.0,68.9,65.9,96,84,53,29.79,29.66,16,2,16,0.03
2013-5-4,88.1,75.8,67.8,70.8,67.9,65.4,96,78,53,29.78,29.66,22,4,22,0.02
2013-5-5,79.4,72.6,67.6,67.0,62.9,55.4,93,74,45,29.91,29.73,23,4,23,0.04
2013-5-6,87.9,72.8,60.0,66.6,61.5,56.6,91,70,41,29.99,29.89,14,2,14,0.02
2013-5-7,86.4,73.2,63.1,63.9,61.1,58.9,91,68,40,30.04,29.94,15,3,16,0.01
2013-5-8,89.6,75.8,62.2,66.1,61.1,55.2,93,64,32,30.11,30.01,16,1,16,0.00
2013-5-9,89.7,77.8,66.5,73.1,67.4,59.3,87,72,47,30.11,30.02,17,2,17,0.00
2013-5-10,89.7,80.7,72.6,73.7,71.8,68.4,88,76,53,30.10,29.99,19,3,19,0.11
2013-5-11,88.7,79.3,72.9,76.1,72.9,69.5,94,82,64,30.04,29.95,18,3,18,0.07
2013-5-12,95.5,79.3,72.4,76.8,72.1,68.6,95,81,47,30.03,29.92,13,2,16,0.19
2013-5-13,86.5,77.7,71.7,72.6,70.1,65.4,95,79,57,30.06,29.96,16,3,16,0.01
2013-5-14,79.6,74.6,68.6,67.8,62.7,57.7,88,68,51,30.15,30.03,19,4,19,0.00
2013-5-15,81.7,74.5,67.3,65.3,62.1,57.9,86,66,47,30.16,30.06,17,3,17,0.00
2013-5-16,84.8,75.5,67.2,65.1,62.8,59.2,88,66,48,30.08,30.01,15,2,15,0.00
2013-5-17,92.9,78.1,69.8,72.7,69.0,64.1,89,75,44,30.06,29.98,15,2,15,0.00
2013-5-18,87.0,79.5,74.0,75.2,72.0,70.0,92,78,64,30.07,29.99,21,3,21,0.00
2013-5-19,87.2,79.2,72.4,71.9,69.8,67.0,91,74,53,30.07,29.97,14,2,14,0.00
2013-5-20,78.6,74.6,68.9,75.1,71.2,66.7,95,89,81,30.05,29.94,19,2,19,0.96
2013-5-21,83.8,76.0,70.7,74.6,70.8,68.0,96,85,65,30.02,29.90,19,3,19,0.79
2013-5-22,91.0,76.3,71.1,75.4,71.8,68.3,93,87,56,29.94,29.86,20,1,20,0.19
2013-5-23,93.7,81.1,73.0,75.7,72.5,67.4,96,77,45,29.98,29.88,14,2,14,0.09
2013-5-24,92.8,81.3,73.4,75.8,73.0,65.7,94,77,45,30.03,29.92,14,2,14,0.07
2013-5-25,84.0,79.5,75.1,74.8,69.5,65.5,91,73,56,30.13,30.01,20,5,20,0.05
2013-5-26,83.4,77.6,70.4,69.2,65.9,62.5,83,68,57,30.14,30.07,16,4,16,0.04
2013-5-27,84.2,77.8,72.2,73.3,69.8,64.8,92,77,68,30.13,30.03,17,4,17,0.04
2013-5-28,81.5,77.3,74.1,74.0,72.4,70.0,92,85,75,30.08,30.01,24,5,24,0.04
2013-5-29,80.5,74.9,70.6,74.6,71.1,67.8,95,88,75,30.07,29.99,27,4,27,1.17
2013-5-30,82.5,76.8,70.8,76.0,72.2,68.4,94,86,76,30.03,29.97,23,6,23,0.62
2013-5-31,83.5,78.1,74.0,75.5,73.5,71.2,92,86,75,30.03,29.96,19,4,19,0.31
2013-6-1,83.3,76.2,72.8,76.8,73.7,71.6,97,92,76,30.00,29.92,15,2,15,3.75
2013-6-2,94.5,79.4,72.2,79.6,74.0,71.3,97,85,54,29.98,29.88,17,1,17,0.00
2013-6-3,91.0,80.9,73.9,76.8,74.0,71.8,94,81,57,30.01,29.88,12,1,12,0.03
2013-6-4,86.2,78.5,73.2,76.9,73.7,70.7,96,86,64,30.02,29.92,11,1,11,0.08
2013-6-5,83.9,80.5,78.4,76.7,75.6,74.2,90,85,76,29.99,29.86,6,2,14,0.14
2013-6-6,89.1,80.0,75.8,79.2,75.5,71.4,95,86,67,29.88,29.75,12,6,35,0.39
2013-6-7,92.0,77.4,73.3,78.0,73.7,71.7,97,89,61,29.97,29.81,17,2,20,1.03
2013-6-8,86.5,78.7,74.0,79.9,75.2,73.1,97,90,72,30.08,29.93,19,2,19,1.46
2013-6-9,87.5,82.3,78.2,76.5,74.9,73.2,90,79,66,30.08,30.00,19,4,19,0.00
2013-6-10,88.7,83.1,79.2,77.2,75.7,74.4,87,79,67,30.07,29.98,17,4,17,0.00
2013-6-11,90.8,82.2,77.5,79.5,76.6,73.7,94,84,60,30.07,29.97,18,2,18,0.55
2013-6-12,90.6,80.0,76.3,77.5,75.2,71.2,94,86,64,30.05,29.98,19,0,19,0.16
2013-6-13,92.2,80.8,75.6,80.5,74.3,70.9,96,82,57,30.02,29.91,14,1,14,0.01
2013-6-14,97.5,82.3,74.9,77.2,73.7,70.8,94,77,48,29.95,29.85,17,2,17,0.00
2013-6-15,94.7,82.8,75.8,77.1,74.5,71.6,95,78,50,30.03,29.90,12,1,12,0.00
2013-6-16,90.8,83.4,76.7,78.4,75.4,73.7,93,78,59,30.06,29.98,14,2,14,0.00
2013-6-17,92.0,84.7,78.4,77.2,75.5,73.4,91,75,57,30.05,29.97,17,2,17,0.00
2013-6-18,92.2,84.9,78.5,77.3,75.7,73.6,91,75,58,30.04,29.95,18,3,18,0.00
2013-6-19,91.7,83.9,78.6,78.6,75.6,73.3,93,77,60,30.02,29.95,17,2,17,0.00
2013-6-20,95.3,81.4,73.0,77.2,73.3,69.2,93,78,52,30.06,29.98,24,2,24,0.65
2013-6-21,91.3,82.9,74.2,77.5,73.7,69.6,94,76,51,30.08,30.00,16,2,18,0.30
2013-6-22,90.2,83.5,78.1,75.6,73.9,71.5,89,74,56,30.07,30.00,13,2,13,0.00
2013-6-23,89.7,82.8,78.3,76.5,73.8,70.9,86,75,61,30.10,30.02,20,3,20,0.11
2013-6-24,87.7,82.6,77.1,76.3,74.2,71.8,89,76,63,30.13,30.04,23,3,23,0.10
2013-6-25,89.8,82.1,75.5,78.0,75.2,70.9,94,80,65,30.11,30.01,19,3,19,0.61
2013-6-26,91.4,83.9,78.1,77.3,75.1,72.8,88,76,56,30.05,29.98,18,3,18,0.00
2013-6-27,90.7,82.5,74.6,77.6,75.2,70.0,90,79,62,30.03,29.93,15,1,15,0.09
2013-6-28,93.0,82.4,72.1,77.8,74.9,69.2,93,79,56,29.97,29.83,20,2,20,0.91
2013-6-29,97.3,80.7,74.1,79.4,74.9,70.5,95,84,49,29.89,29.80,23,1,23,1.09
2013-6-30,92.3,80.2,75.2,79.3,74.9,71.6,93,85,59,29.92,29.82,25,3,25,0.61
2013-7-1,89.2,80.4,76.7,78.2,75.2,71.4,93,85,64,30.01,29.89,24,3,24,0.06
2013-7-2,88.8,81.9,77.0,78.3,76.0,73.3,92,83,69,30.08,29.94,20,3,20,0.03
2013-7-3,87.8,81.7,76.2,77.3,75.1,72.2,91,81,68,30.11,30.01,25,5,26,0.02
2013-7-4,89.2,81.7,74.2,76.8,74.8,70.6,95,80,65,30.14,30.03,27,5,27,0.02
2013-7-5,86.6,80.5,74.3,77.1,75.2,71.8,95,84,71,30.11,30.01,20,4,21,0.02
2013-7-6,87.8,82.6,78.8,76.6,74.7,71.4,88,77,63,30.09,29.99,19,4,19,0.71
2013-7-7,87.8,83.0,78.1,76.6,74.6,73.1,87,76,66,30.07,29.99,19,4,19,0.00
2013-7-8,88.5,82.8,77.3,75.4,73.9,72.4,85,75,62,30.11,30.04,18,2,18,0.00
2013-7-9,88.3,81.3,76.1,75.0,73.2,68.6,91,77,60,30.11,30.02,19,2,19,0.00
2013-7-10,85.7,78.3,72.8,76.0,73.2,69.3,94,85,67,30.06,29.97,13,2,13,0.20
2013-7-11,92.2,82.2,76.5,78.4,74.7,71.0,94,79,56,30.01,29.91,18,2,18,0.00
2013-7-12,92.6,80.9,75.9,79.5,74.7,71.1,93,82,54,29.95,29.86,14,1,14,0.14
2013-7-13,93.3,76.6,72.4,77.2,72.5,69.9,96,88,57,30.00,29.89,21,2,21,1.91
2013-7-14,89.9,77.8,71.5,76.1,72.7,69.4,96,86,59,30.07,29.95,18,2,18,1.19
2013-7-15,88.7,79.5,72.8,75.8,73.1,70.8,95,82,60,30.06,29.98,14,2,15,0.15
2013-7-16,83.0,77.9,73.6,74.9,71.8,69.3,92,82,68,30.11,30.01,28,4,28,0.04
2013-7-17,77.7,74.7,72.2,73.4,71.7,69.3,95,91,82,30.12,30.03,22,1,22,0.38
2013-7-18,86.3,76.5,71.3,77.6,72.9,68.5,96,89,71,30.10,30.02,9,2,22,1.52
2013-7-19,88.7,80.5,73.4,79.4,75.6,72.2,97,86,66,30.10,30.01,14,3,19,0.00
2013-7-20,84.6,80.4,78.9,79.1,77.1,76.4,93,90,81,30.08,30.00,16,1,16,0.03
2013-7-21,92.6,81.0,75.7,79.5,76.0,69.5,94,85,64,30.12,30.01,12,1,29,0.39
2013-7-22,93.3,84.0,77.2,78.5,75.4,72.6,93,77,53,30.11,30.03,7,2,16,0.00
2013-7-23,98.7,86.6,77.4,79.2,75.1,72.5,92,71,44,30.08,29.93,7,2,16,0.00
2013-7-24,96.2,84.5,76.7,77.9,74.8,70.9,95,75,50,30.00,29.88,7,2,18,0.31
2013-7-25,95.2,85.1,76.6,77.7,75.1,72.7,90,73,54,29.99,29.89,15,2,15,0.00
2013-7-26,95.3,85.7,76.7,80.6,76.0,72.9,92,74,55,30.00,29.91,21,3,21,0.06
2013-7-27,93.9,79.9,75.1,78.8,75.7,72.4,94,88,61,29.98,29.90,21,2,21,0.79
2013-7-28,90.0,80.7,75.5,78.8,75.6,70.9,92,85,67,30.05,29.92,17,1,17,0.16
2013-7-29,91.6,82.7,76.4,78.6,76.1,73.8,94,81,63,30.10,29.99,14,2,14,0.00
2013-7-30,90.1,83.6,75.5,79.5,76.5,72.9,92,80,65,30.13,30.05,15,2,15,0.21
2013-7-31,90.8,84.3,79.1,78.0,75.8,73.2,91,76,59,30.08,29.97,17,3,17,0.00
2013-8-1,89.7,83.5,78.6,75.9,74.6,71.1,86,75,60,30.03,29.91,15,3,17,0.00
2013-8-2,82.0,78.7,77.3,76.3,74.2,73.3,93,86,81,29.95,29.89,7,1,7,0.00
2013-8-3,87.8,78.0,71.6,78.5,74.3,68.4,95,89,73,30.11,29.99,13,1,28,1.10
2013-8-4,98.5,85.0,75.8,79.9,75.6,73.0,95,76,47,30.08,29.95,18,1,18,0.01
2013-8-5,93.9,82.0,76.8,79.9,75.8,72.8,93,82,59,30.01,29.92,9,2,22,0.03
2013-8-6,93.8,82.1,75.8,79.5,75.9,73.0,94,83,56,29.96,29.85,9,1,21,0.30
2013-8-7,91.4,83.3,76.7,79.7,76.1,73.9,95,80,60,29.95,29.87,11,3,19,0.09
2013-8-8,91.5,84.6,79.1,78.3,75.6,73.4,89,75,60,29.99,29.90,20,4,20,0.07
2013-8-9,88.0,82.5,78.5,77.3,74.4,71.3,86,77,66,30.03,29.92,28,4,28,0.07
2013-8-10,91.6,84.3,78.9,77.8,75.6,74.2,87,76,58,30.09,30.00,15,4,20,0.00
2013-8-11,91.3,84.9,80.0,77.8,76.2,74.8,86,76,61,30.10,30.03,15,3,15,0.00
2013-8-12,89.4,83.4,77.5,77.4,75.3,72.9,89,77,60,30.08,29.99,13,2,17,0.00
2013-8-13,93.0,85.1,78.7,78.1,75.5,72.0,91,74,52,30.01,29.92,18,2,18,0.00
2013-8-14,94.2,84.6,77.6,78.8,75.4,72.6,93,75,55,30.00,29.90,19,3,19,0.00
2013-8-15,88.8,81.4,76.0,77.9,75.7,72.6,92,83,68,30.03,29.93,12,2,12,0.15
2013-8-16,92.5,84.9,78.6,79.5,77.2,75.5,91,79,61,30.02,29.94,17,2,17,0.00
2013-8-17,91.3,85.4,81.0,79.2,77.5,75.7,88,78,64,30.05,29.97,18,3,18,0.00
2013-8-18,90.3,84.8,80.7,78.6,76.8,75.0,85,77,67,30.04,29.96,19,4,19,0.01
2013-8-19,91.3,84.8,79.4,78.4,76.5,74.4,89,77,63,30.04,29.93,20,3,20,0.00
2013-8-20,91.1,84.8,79.7,77.2,75.8,73.0,85,75,58,30.03,29.95,18,3,18,0.00
2013-8-21,89.0,82.4,78.4,80.1,77.0,73.9,92,84,69,30.05,29.96,23,3,23,0.36
2013-8-22,90.5,83.1,73.7,79.5,76.7,70.8,95,82,65,30.06,29.92,25,2,25,0.73
2013-8-23,91.2,83.4,78.9,78.3,76.3,73.3,91,80,59,29.99,29.90,16,2,16,0.00
2013-8-24,92.2,83.5,75.3,78.6,75.6,71.3,92,78,59,30.09,29.94,15,2,15,0.94
2013-8-25,86.0,79.7,75.6,77.1,74.9,73.2,95,86,70,30.12,30.00,15,2,15,0.04
2013-8-26,89.5,80.6,74.6,77.9,74.3,71.0,93,82,64,30.09,29.98,17,2,17,0.03
2013-8-27,87.3,79.0,74.3,75.6,73.0,69.4,94,83,61,30.02,29.94,14,1,14,0.04
2013-8-28,87.8,79.1,71.4,77.3,73.6,66.0,93,84,65,30.01,29.92,20,2,20,0.94
2013-8-29,91.5,82.3,74.3,77.4,74.8,72.2,94,79,59,30.00,29.90,13,2,13,0.00
2013-8-30,94.8,84.7,76.7,77.6,74.8,70.2,93,74,48,29.98,29.86,15,2,15,0.00
2013-8-31,94.4,81.1,74.9,79.0,74.3,71.6,93,81,54,29.95,29.88,14,1,14,0.15
2013-9-1,92.4,80.2,74.8,78.5,75.2,73.0,96,86,55,29.97,29.90,7,0,11,0.02
2013-9-2,95.8,80.0,75.1,81.0,75.2,72.4,96,87,51,30.00,29.91,25,1,25,0.26
2013-9-3,92.2,81.1,74.1,78.4,75.1,72.6,95,83,60,29.99,29.90,12,1,12,0.00
2013-9-4,85.3,81.4,78.3,79.6,77.0,74.4,94,87,77,30.04,29.92,14,1,14,0.19
2013-9-5,80.3,79.5,78.7,76.8,76.4,75.5,91,90,88,30.02,29.96,3,0,3,0.00
2013-9-6,92.8,83.1,78.8,79.4,76.7,74.4,93,82,59,30.01,29.95,10,1,10,0.00
2013-9-7,86.8,77.8,72.2,78.4,74.0,67.6,94,88,72,29.96,29.88,22,2,22,0.84
2013-9-8,91.3,77.9,73.9,77.6,73.7,71.0,95,87,60,29.92,29.82,18,1,18,0.01
2013-9-9,87.7,81.3,75.2,76.6,74.3,71.5,94,80,65,29.97,29.87,24,2,24,0.40
2013-9-10,87.8,81.4,76.0,77.2,75.1,72.4,94,82,65,30.01,29.92,20,3,20,0.01
2013-9-11,81.8,78.8,73.7,75.8,74.4,70.8,93,86,79,30.03,29.93,17,2,17,0.66
2013-9-12,84.8,80.0,76.2,77.3,75.5,73.5,95,86,74,29.99,29.86,9,1,9,0.00
2013-9-13,95.2,82.5,74.6,77.7,74.8,69.7,96,79,47,29.88,29.77,13,1,13,0.00
2013-9-14,92.0,83.7,76.9,78.0,74.6,70.4,94,76,52,29.94,29.80,14,1,14,0.00
2013-9-15,86.8,79.9,75.5,78.5,75.5,71.0,92,87,74,30.03,29.89,19,1,19,0.64
2013-9-16,84.2,79.3,73.2,78.4,75.7,69.6,95,89,78,30.01,29.93,23,2,23,0.39
2013-9-17,80.6,78.7,74.2,76.2,74.7,71.8,95,88,79,30.00,29.88,15,3,15,0.14
2013-9-18,87.0,79.4,73.9,76.6,74.5,71.8,94,85,67,29.99,29.88,12,1,12,0.02
2013-9-19,87.1,79.4,74.5,77.3,74.5,71.9,96,85,68,29.98,29.89,12,3,16,0.45
2013-9-20,85.1,79.4,73.6,73.8,71.7,67.8,93,78,57,29.97,29.86,17,3,17,0.01
2013-9-21,88.8,80.3,73.9,75.6,73.1,70.8,92,79,62,29.89,29.74,12,1,14,0.02
2013-9-22,93.3,83.6,76.1,77.4,75.1,70.6,94,77,49,29.84,29.72,14,2,14,0.00
2013-9-23,88.6,80.4,76.9,79.0,76.5,74.7,94,88,69,29.95,29.83,10,1,12,0.34
2013-9-24,94.0,81.3,74.0,80.7,75.4,71.6,95,83,59,29.94,29.84,16,2,22,0.23
2013-9-25,90.1,80.2,74.9,79.6,74.8,71.6,92,84,61,29.89,29.77,13,2,16,0.00
2013-9-26,88.8,80.2,76.2,81.6,76.5,74.2,94,89,72,29.84,29.76,27,2,27,0.22
2013-9-27,86.9,79.7,73.8,76.4,73.4,68.3,96,82,54,29.89,29.79,12,3,13,0.00
2013-9-28,86.5,79.3,74.2,75.2,73.2,70.8,94,82,65,29.93,29.84,17,3,17,0.16
2013-9-29,87.5,78.3,73.4,73.7,71.9,68.0,95,82,57,29.94,29.85,10,1,10,0.00
2013-10-11,84.8,77.7,71.1,71.8,69.2,66.5,93,76,55,29.98,29.91,8,2,14,0.00
2013-10-12,85.7,77.5,70.8,72.2,69.2,66.5,95,77,54,30.00,29.92,7,1,13,0.00
2013-10-13,84.1,77.4,72.6,72.1,68.6,64.4,94,76,52,30.02,29.93,10,3,16,0.00
2013-10-14,84.1,77.1,71.5,71.1,69.5,67.9,93,78,61,29.99,29.87,6,2,14,0.00
2013-10-15,84.8,77.4,71.2,72.5,70.7,68.2,95,81,59,29.93,29.83,8,2,13,0.00
2013-10-16,84.0,77.3,72.4,72.6,70.4,67.0,93,80,58,29.92,29.85,6,1,11,0.00
2013-10-17,85.2,78.2,72.0,73.7,71.3,69.6,95,80,64,29.94,29.86,4,1,11,0.20
2013-10-18,87.2,79.1,72.5,74.5,72.3,70.7,96,81,63,29.96,29.87,11,1,15,0.00
2013-10-19,90.7,81.2,73.4,76.2,73.1,70.5,94,77,58,29.93,29.84,15,2,15,0.00
2013-10-20,92.7,81.6,76.2,77.6,74.8,70.1,95,81,50,29.93,29.84,13,2,13,0.00
2013-10-21,91.8,82.3,75.9,77.4,75.0,72.9,93,79,61,29.97,29.87,16,2,16,0.00
2013-10-22,91.0,82.3,75.5,77.8,75.3,73.4,94,80,59,29.94,29.80,15,2,15,0.11
2013-10-23,87.0,79.4,74.9,75.7,73.3,69.2,94,82,65,29.93,29.79,16,3,16,0.00
2013-10-24,79.0,75.1,71.4,70.0,66.4,63.2,83,75,66,30.06,29.90,16,5,16,0.00
2013-10-25,80.8,74.2,68.0,67.2,65.1,63.0,87,74,57,30.12,30.03,21,5,21,0.00
2013-10-26,81.5,73.3,67.3,67.3,64.7,62.9,89,76,56,30.12,30.02,15,2,15,0.00
2013-10-27,70.0,68.6,67.9,64.2,63.3,62.5,85,83,79,30.05,30.00,6,2,6,0.00
2013-11-7,84.7,75.7,69.7,72.5,69.4,66.6,95,82,56,29.99,29.89,7,2,13,0.00
2013-11-8,82.5,75.4,69.9,72.7,70.1,67.5,94,84,63,30.00,29.91,13,6,21,0.15
2013-11-9,78.4,75.2,72.6,72.5,71.3,70.4,95,88,80,30.08,29.98,11,6,22,0.90
2013-11-10,81.6,77.4,72.7,72.6,70.7,69.0,90,80,71,30.09,30.01,8,4,14,0.02
2013-11-11,81.6,75.5,69.9,71.9,68.9,66.9,93,81,69,30.08,30.01,9,3,17,0.00
2013-11-12,81.9,75.6,69.5,71.2,68.3,66.2,94,79,62,30.05,29.93,6,2,12,0.00
2013-11-13,74.6,71.2,69.0,68.2,63.8,57.0,88,78,65,30.18,29.96,24,9,25,0.13
2013-11-14,75.2,71.8,68.7,62.5,58.6,55.4,71,63,55,30.21,30.10,21,6,21,0.00
2013-11-15,81.0,76.3,72.3,70.0,66.9,62.4,77,73,65,30.11,29.99,20,4,20,0.00
2013-11-16,78.8,76.1,72.6,72.1,69.9,67.2,89,81,73,30.06,29.98,18,3,18,0.18
2013-11-17,84.2,78.2,72.4,73.6,70.7,68.8,90,78,66,30.04,29.97,18,3,18,0.00
2013-11-18,84.7,76.7,71.3,73.8,70.9,68.8,95,83,67,30.00,29.89,11,0,11,0.00
2013-11-19,83.0,75.5,71.6,73.1,70.9,69.3,94,86,69,29.91,29.82,13,2,13,0.00
2013-11-20,83.3,75.9,69.4,74.3,71.4,67.9,95,87,71,30.03,29.89,11,1,11,0.05
2013-11-21,80.8,75.6,71.9,74.1,71.7,70.1,95,88,74,30.11,30.00,15,2,15,0.80
2013-11-22,80.3,77.0,74.9,72.1,70.2,68.3,86,80,72,30.12,30.03,20,5,20,0.00
2013-11-23,81.4,76.2,71.7,72.1,70.1,68.3,89,82,71,30.05,29.94,11,2,14,0.00
2013-11-24,79.5,73.0,68.7,70.2,67.5,63.8,94,83,66,30.11,29.95,20,5,20,0.07
2013-11-25,75.3,72.6,70.9,68.7,64.8,60.3,89,77,68,30.17,30.01,22,8,22,0.05
2013-11-26,83.6,77.2,71.5,74.5,72.3,68.4,93,85,71,30.02,29.80,26,5,26,0.12
2013-11-27,77.3,70.8,58.0,74.5,64.7,52.0,96,82,57,30.09,29.75,25,6,25,0.95
2013-11-28,72.0,60.8,46.8,59.5,53.1,43.7,92,77,56,30.22,30.09,20,6,20,0.00
2013-11-29,75.7,67.9,58.6,62.9,59.6,56.1,92,76,56,30.24,30.15,20,5,20,0.00
2013-11-30,74.4,67.9,60.7,69.3,62.8,58.8,94,84,69,30.18,30.07,12,4,18,0.23
2013-12-1,74.9,67.7,62.0,71.6,65.3,60.0,96,92,82,30.08,29.91,9,2,11,1.26
2013-12-2,72.7,67.1,62.9,67.3,63.6,60.5,96,89,67,29.92,29.79,15,3,15,0.00
2013-12-3,62.8,61.8,61.3,60.5,59.8,59.3,94,93,92,29.88,29.87,2,0,2,0.00
2013-12-4,81.8,73.1,65.8,71.3,66.2,63.7,94,80,62,30.06,29.95,5,1,12,0.00
2013-12-5,82.0,74.0,66.2,72.2,68.3,64.4,95,83,68,30.13,30.04,9,2,19,0.00
2013-12-6,82.1,76.3,68.6,70.7,69.0,65.9,92,79,65,30.15,30.05,20,3,20,0.00
2013-12-7,82.8,73.3,66.7,72.2,68.2,65.1,95,85,60,30.19,30.10,12,1,12,0.00
2013-12-8,82.2,75.9,69.1,71.6,69.3,67.3,94,81,64,30.18,30.09,9,3,20,0.07
2013-12-9,83.1,77.1,71.4,70.7,68.2,62.9,90,75,52,30.16,30.07,9,3,21,0.00
2013-12-10,85.0,76.5,69.2,73.0,70.6,66.8,94,83,64,30.13,30.04,7,1,14,0.00
2013-12-11,82.1,74.7,69.3,73.8,70.3,67.8,96,87,68,30.17,30.09,5,1,12,0.00
2013-12-12,77.4,70.0,63.5,71.5,65.8,59.5,96,87,71,30.20,30.10,13,5,20,0.00
2013-12-13,76.6,72.0,63.2,68.2,63.5,58.5,89,75,66,30.17,30.06,9,4,19,0.16
2013-12-14,81.4,76.3,71.0,72.1,70.2,67.9,91,82,69,30.08,29.95,11,4,22,0.01
2013-12-15,84.8,75.5,69.5,75.9,71.3,66.4,95,87,71,30.03,29.90,19,2,19,0.00
2013-12-16,69.5,67.8,65.4,66.4,63.5,59.4,90,86,80,30.03,30.00,15,5,15,0.00
2013-12-17,76.1,66.1,58.1,65.0,59.5,56.1,94,80,62,30.15,30.06,10,4,16,0.00
2013-12-18,73.8,65.1,59.4,59.5,58.0,56.0,93,79,57,30.21,30.11,16,4,16,0.00
2013-12-19,60.2,60.1,60.0,56.8,56.7,56.6,89,89,88,30.19,30.18,4,1,4,0.00
2013-12-20,80.6,74.1,65.4,69.8,66.8,61.8,92,79,66,30.16,30.07,9,2,18,0.00
2013-12-21,82.4,77.5,74.7,72.6,71.0,68.9,87,81,69,30.11,30.03,12,5,22,0.00
2013-12-22,82.8,78.2,75.9,73.0,71.8,70.7,88,81,69,30.13,30.04,12,6,25,0.00
2013-12-23,83.8,77.6,72.0,73.6,71.6,69.0,91,82,69,30.14,30.08,16,4,24,0.00
2013-12-24,81.5,72.0,66.7,73.9,68.2,60.7,96,88,68,30.15,30.05,20,4,20,0.02
2013-12-25,76.0,72.2,70.0,66.9,65.5,63.9,87,79,71,30.14,30.06,11,6,23,0.01
2013-12-26,77.5,74.1,70.7,70.9,68.8,66.7,90,84,75,30.13,30.03,11,3,12,0.02
2013-12-27,79.7,74.1,67.7,71.4,68.9,65.9,95,84,73,30.17,30.06,14,3,14,0.01
2013-12-28,79.0,76.1,73.7,72.2,70.4,67.9,89,83,77,30.14,29.98,21,5,21,0.01
2013-12-29,81.9,77.1,73.9,74.1,72.7,71.4,95,87,77,30.01,29.90,16,4,20,0.00
2013-12-30,76.9,71.9,67.0,72.3,68.7,63.9,97,90,78,30.12,29.95,14,3,14,0.00
2013-12-31,77.0,71.5,66.5,67.2,64.3,61.9,89,78,67,30.19,30.08,22,6,22,0.00
2014-1-1,80.0,74.3,71.9,73.3,70.0,64.9,95,87,75,30.17,30.01,16,3,16,0.30
2014-1-2,85.2,75.5,68.2,73.1,69.2,66.7,97,82,58,30.01,29.83,19,2,19,0.01